This is the latest recevied weather packets stored in our database for station/object NR0A-4. If no packets are shown the sender has not sent any weather packets the latest 10 day(s).
| Time | Temp. | Humidity | Pressure | Rain* | Wind** | Luminosity | Snow |
|---|---|---|---|---|---|---|---|
| 1788212104 | 31.11° C | 55% | 1013.9 hPa | 0 mm | - | 487 W/m² | - |
| 1788211804 | 31.11° C | 55% | 1013.8 hPa | 0 mm | - | 566 W/m² | - |
| 1788211504 | 31.11° C | 55% | 1013.8 hPa | 0 mm | - | 566 W/m² | - |
| 1788211204 | 31.11° C | 53% | 1013.8 hPa | 0 mm | - | 573 W/m² | - |
| 1788210904 | 31.11° C | 53% | 1013.8 hPa | 0 mm | - | 585 W/m² | - |
| 1788210605 | 31.11° C | 56% | 1013.8 hPa | 0 mm | - | 592 W/m² | - |
| 1788210304 | 31.11° C | 54% | 1013.8 hPa | 0 mm | - | 606 W/m² | - |
| 1788210004 | 30.56° C | 56% | 1013.9 hPa | 0 mm | - | 619 W/m² | - |
| 1788209704 | 30.56° C | 58% | 1013.9 hPa | 0 mm | - | 615 W/m² | - |
| 1788209404 | 31.11° C | 55% | 1014 hPa | 0 mm | - | 617 W/m² | - |
| 1788209104 | 31.11° C | 56% | 1014.1 hPa | 0 mm | - | 645 W/m² | - |
| 1788208804 | 31.11° C | 56% | 1014 hPa | 0 mm | - | 670 W/m² | - |
| 1788208522 | 30.56° C | 59% | 1014.1 hPa | 0 mm | - | 670 W/m² | - |
| 1788208204 | 30.56° C | 61% | 1014.1 hPa | 0 mm | - | 673 W/m² | - |
| 1788207904 | 30.56° C | 60% | 1014.2 hPa | 0 mm | - | 680 W/m² | - |
| 1788207604 | 30° C | 60% | 1014 hPa | 0 mm | - | 684 W/m² | - |
| 1788207304 | 30° C | 58% | 1014.1 hPa | 0 mm | - | 693 W/m² | - |
| 1788207004 | 30° C | 60% | 1014.2 hPa | 0 mm | - | 696 W/m² | - |
| 1788206704 | 30° C | 58% | 1014.2 hPa | 0 mm | - | 705 W/m² | - |
| 1788206404 | 30° C | 59% | 1014.2 hPa | 0 mm | - | 712 W/m² | - |
| 1788206104 | 30° C | 58% | 1014.1 hPa | 0 mm | - | 717 W/m² | - |
| 1788205804 | 30° C | 60% | 1014.1 hPa | 0 mm | - | 726 W/m² | - |
| 1788205503 | 29.44° C | 59% | 1014.2 hPa | 0 mm | - | 733 W/m² | - |
| 1788205204 | 29.44° C | 60% | 1014.2 hPa | 0 mm | - | 735 W/m² | - |
| 1788204904 | 28.89° C | 60% | 1014.3 hPa | 0 mm | - | 744 W/m² | - |
* Rain latest hour (hover to see other rain measurements)
** Current wind speed in m/s (hover to see current wind gust speed)